sat.trackr.live / text

‹ back to catalog

ONEWEB-0315

NORAD 49101 · 2021-075AC

PAYLOAD ACTIVE UNKNOWN

§ Identity

Operator
Country
UK
Launch date
2021-08-21
Launch site
TYMSC
Launch vehicle
Mass (kg)
RCS (m²)

Purposes: comms

External: N2YO · Heavens-Above · Gunter

§ Orbital elements

Epoch: 2026-09-08T18:20:48.704640Z

Period
109.72 min
Inclination
87.8997°
Eccentricity
0.0001997
Mean motion
13.12441997 rev/d
Perigee alt
1,212.2 km
Apogee alt
1,215.2 km
Semi-major
7,591.9 km
B*
1.1846e-3
RAAN
334.0539°
Arg perigee
112.1423°
Mean anomaly
247.9918°
Rev number
24,613

§ Raw data

ONEWEB-03151 49101U 21075AC  26251.76445260  .00000439  00000+0  11846-2 0  99972 49101  87.8997 334.0539 0001997 112.1423 247.9918 13.12441997246139

JSON: /api/v1/satellites/49101 · /tle

For live sub-satellite position, see the globe view (requires WebGL).

§ Visibility from observer

Set your observer location to see the next 7 days of passes ≥ 10°. The values pass through the URL so the page stays shareable.

No JS? Fill the form by hand. The geolocation button needs JavaScript.